This is the latest recevied weather packets stored in our database for station/object R2AKT-13. If no packets are shown the sender has not sent any weather packets the latest 10 day(s).
| Time | Temp. | Humidity | Pressure | Rain* | Wind** | Luminosity | Snow |
|---|---|---|---|---|---|---|---|
| 1777948794 | 15° C | 49% | 983.1 hPa | - | 0 m/s | - | - |
| 1777948244 | 15° C | 49% | 983.1 hPa | - | 0 m/s | - | - |
| 1777947674 | 15° C | 49% | 983 hPa | - | 0 m/s | - | - |
| 1777947074 | 15.56° C | 49% | 982.9 hPa | - | 0.45 m/s, 226° | - | - |
| 1777946489 | 15.56° C | 49% | 982.7 hPa | - | 1.79 m/s, 190° | - | - |
| 1777945979 | 15.56° C | 49% | 982.8 hPa | - | 1.34 m/s, 180° | - | - |
| 1777945404 | 15.56° C | 49% | 982.6 hPa | - | 1.79 m/s, 192° | - | - |
| 1777944919 | 15.56° C | 49% | 982.7 hPa | - | 2.24 m/s, 187° | - | - |
| 1777944364 | 15.56° C | 49% | 982.7 hPa | - | 1.79 m/s, 189° | - | - |
| 1777943874 | 15.56° C | 49% | 982.8 hPa | - | 1.34 m/s, 193° | - | - |
| 1777943334 | 16.11° C | 49% | 982.7 hPa | - | 0.89 m/s, 193° | - | - |
| 1777942794 | 15.56° C | 49% | 982.8 hPa | - | 1.79 m/s, 189° | - | - |
| 1777942303 | 16.11° C | 49% | 982.8 hPa | - | 1.34 m/s, 187° | - | - |
| 1777941739 | 16.11° C | 49% | 982.9 hPa | - | 1.34 m/s, 199° | - | - |
| 1777941174 | 16.11° C | 48% | 982.9 hPa | - | 0.89 m/s, 195° | - | - |
| 1777940664 | 16.11° C | 48% | 982.9 hPa | - | 2.24 m/s, 193° | - | - |
| 1777940074 | 16.11° C | 48% | 983 hPa | - | 0.89 m/s, 181° | - | - |
| 1777939589 | 16.67° C | 48% | 983 hPa | - | 1.34 m/s, 209° | - | - |
| 1777939034 | 16.67° C | 48% | 983.1 hPa | - | 0.89 m/s, 223° | - | - |
| 1777938434 | 16.67° C | 48% | 983.2 hPa | - | 0.89 m/s, 199° | - | - |
| 1777937844 | 16.67° C | 48% | 983.2 hPa | - | 0.89 m/s, 225° | - | - |
| 1777937359 | 16.67° C | 48% | 983.3 hPa | - | 1.79 m/s, 197° | - | - |
| 1777936794 | 16.67° C | 48% | 983.3 hPa | - | 1.34 m/s, 190° | - | - |
| 1777936289 | 16.67° C | 48% | 983.3 hPa | - | 0.89 m/s, 190° | - | - |
| 1777935799 | 16.67° C | 49% | 983.4 hPa | - | 1.79 m/s, 184° | - | - |
* Rain since midnight (hover to see other rain measurements)
** Current wind speed in m/s (hover to see current wind gust speed)